This is the latest recevied weather packets stored in our database for station/object NK7E. If no packets are shown the sender has not sent any weather packets the latest 10 day(s).
| Time | Temp. | Humidity | Pressure | Rain* | Wind** | Luminosity | Snow |
|---|---|---|---|---|---|---|---|
| 1777698317 | 23.89° C | 24% | 1012.5 hPa | 0 mm | - | 0 W/m² | - |
| 1777697716 | 23.89° C | 24% | 1012.3 hPa | 0 mm | - | 0 W/m² | - |
| 1777697116 | 24.44° C | 24% | 1012.2 hPa | 0 mm | - | 0 W/m² | - |
| 1777696517 | 24.44° C | 24% | 1012.2 hPa | 0 mm | - | 0 W/m² | - |
| 1777695917 | 24.44° C | 24% | 1012.1 hPa | 0 mm | - | 0 W/m² | - |
| 1777695316 | 24.44° C | 24% | 1011.9 hPa | 0 mm | - | 0 W/m² | - |
| 1777694716 | 24.44° C | 24% | 1011.8 hPa | 0 mm | - | 0 W/m² | - |
| 1777694117 | 25° C | 24% | 1011.7 hPa | 0 mm | - | 0 W/m² | - |
| 1777693517 | 25° C | 24% | 1011.6 hPa | 0 mm | - | 0 W/m² | - |
| 1777692917 | 25° C | 23% | 1011.5 hPa | 0 mm | - | 0 W/m² | - |
| 1777692317 | 25° C | 23% | 1011.4 hPa | 0 mm | - | 0 W/m² | - |
| 1777691716 | 25° C | 23% | 1011.3 hPa | 0 mm | - | 0 W/m² | - |
| 1777691116 | 25° C | 23% | 1011.1 hPa | 0 mm | - | 0 W/m² | - |
| 1777690516 | 25° C | 23% | 1011 hPa | 0 mm | - | 0 W/m² | - |
| 1777689916 | 25° C | 23% | 1010.9 hPa | 0 mm | - | 0 W/m² | - |
| 1777689317 | 25.56° C | 22% | 1010.8 hPa | 0 mm | - | 0 W/m² | - |
| 1777688716 | 25.56° C | 22% | 1010.7 hPa | 0 mm | - | 0 W/m² | - |
| 1777688116 | 25.56° C | 22% | 1010.8 hPa | 0 mm | - | 0 W/m² | - |
| 1777687517 | 26.11° C | 21% | 1010.6 hPa | 0 mm | - | 7 W/m² | - |
| 1777686917 | 26.11° C | 21% | 1010.5 hPa | 0 mm | - | 15 W/m² | - |
| 1777686316 | 26.67° C | 20% | 1010.4 hPa | 0 mm | - | 33 W/m² | - |
| 1777685716 | 26.67° C | 20% | 1010.4 hPa | 0 mm | - | 53 W/m² | - |
| 1777685116 | 27.22° C | 20% | 1010.3 hPa | 0 mm | - | 87 W/m² | - |
| 1777684516 | 27.22° C | 19% | 1010.3 hPa | 0 mm | - | 115 W/m² | - |
| 1777683916 | 27.22° C | 20% | 1010.3 hPa | 0 mm | - | 135 W/m² | - |
* Rain latest hour (hover to see other rain measurements)
** Current wind speed in m/s (hover to see current wind gust speed)